Other Public Products
Issued by NWS Grand Forks, ND

Home | Current Version | Previous Version | Graphics & Text | Print | Product List | Glossary On
Versions: 1 2 3 4 5 6 7 8 9 10 11 12 13 14 15 16 17 18 19 20 21 22 23 24 25 26 27 28 29 30 31 32 33 34 35 36 37 38 39 40 41 42 43 44 45 46 47 48 49 50
000
FPUS83 KFGF 200731
OPUFGF
PRAIRIE TO PINES WEATHER ROUNDUP
NATIONAL WEATHER SERVICE EASTERN NORTH DAKOTA/GRAND FORKS ND
200 AM CDT SAT SEP 20 2014

 **SATELLITE DATA USED TO AUGMENT SKY COVER AT AUTOMATED STATIONS**
 *****  WEATHER ACROSS EASTERN NORTH DAKOTA  *****

CITY           SKY/WX    TMP DP  RH WIND       PRES   REMARKS
GRAND FORKS    PTCLDY    54  52  94 NW5       29.73R
GRAND FORKS AF CLEAR     54  53  99 NW5       29.75R
GRAND CITY NWS   N/A     55 N/A N/A N3          N/A
BUXTON           N/A     59  58  96 NW12        N/A
DEVILS LAKE    CLEAR     52  46  82 W3        29.76R
FARGO          CLEAR     59  54  83 N12       29.73R
WAHPETON ARPT  SUNNY     61  54  77 N12       29.74R
$$

 *****  WEATHER ACROSS CENTRAL AND WESTERN NORTH DAKOTA  *****

CITY           SKY/WX    TMP DP  RH WIND       PRES   REMARKS
JAMESTOWN      PTCLDY    58  56  93 NW8       29.78R
BISMARCK       CLEAR     53  50  89 CALM      29.84R
MINOT          CLEAR     56  51  84 W8        29.80R
MINOT AFB      CLEAR     53  53  99 W8        29.80R
GARRISON         N/A     56  52  86 W10       29.82R
WILLISTON      CLEAR     53  48  83 SW6       29.86R
DICKINSON      CLEAR     52  46  80 W10       29.87R
HETTINGER      CLEAR     51  45  79 W7        29.92R
$$

 *****  OTHER OBSERVATIONS NORTHEAST NORTH DAKOTA  *****

CITY           SKY/WX    TMP DP  RH WIND       PRES   REMARKS
WALHALLA       CLOUDY    54  54 100 NW3       29.75S
LANGDON        FAIR      45  45 100 W3        29.76S FOG
CAVALIER       FAIR      52  50  93 NW7       29.74S
GRAFTON        FAIR      54  54 100 NW7       29.74R
CANDO          FOG       48  46  93 CALM      29.78R VSB<1/4
FORT TOTTEN      N/A     54  53  97 CALM      29.95
ROLLA          FAIR      50  50 100 W5        29.79R
RUGBY          FOG       48  48 100 W7        29.79R VSB<1/4
 ***** THE ABOVE OBSERVATIONS ARE NON NWS ARE NOT QUALITY
        CONTROLLED AND MAY MIS-REPORT RAIN FOR SNOW...
$$

 *****  OTHER OBSERVATIONS SOUTHEAST NORTH DAKOTA *****

CITY           SKY/WX    TMP DP  RH WIND       PRES   REMARKS
COOPERSTOWN    NOT AVBL
VALLEY CITY    FAIR      55  55 100 NW8       29.77S
OAKES            N/A     59  59 100 NW10      29.78R
GWINNER        SUNNY     63  57  82 NW9       29.77R
SHEYENNE NWR     N/A     62  57  84 N6        29.95S
BUFFALO          N/A     56  54  91 NW6         N/A
WYNDMERE         N/A     63  57  82 NW7         N/A
 ***** THE ABOVE OBSERVATIONS ARE NON NWS ARE NOT QUALITY
       CONTROLLED AND MAY MIS-REPORT RAIN FOR SNOW...
$$

  *****  WEATHER ACROSS NORTHERN MINNESOTA  *****

CITY           SKY/WX    TMP DP  RH WIND       PRES   REMARKS
FLAG ISLAND    CLOUDY    55  52  88 NW16      29.63R
WARROAD        CLOUDY    54  50  87 NW14G21   29.67R
ROSEAU         CLOUDY    54  48  82 W8        29.68S
HALLOCK        CLOUDY    57  54  88 NW9       29.72R
THF RVR FALLS  CLOUDY    57  55  94 NW12      29.71R
HALSTAD          N/A     57  54  89 NW9         N/A
FOSSTON        CLOUDY    57  55  94 NW15G21   29.71R
BAUDETTE       CLOUDY    56  54  93 NW14G23   29.62R
WASKISH        CLOUDY    59  57  94 W9        29.63S
CROOKSTON      CLOUDY    57  55  94 NW9         N/A
$$
  *****  WEATHER ACROSS CENTRAL AND WEST MINNESOTA  *****

CITY           SKY/WX    TMP DP  RH WIND       PRES   REMARKS
BEMIDJI        MOCLDY    59  58  94 NW14      29.66R
PARK RAPIDS    CLEAR     61  58  90 NW14      29.65R
WADENA         CLEAR     61  57  88 NW7       29.68R
DETROIT LAKES  CLOUDY    59  57  94 NW14G20   29.73R
MOORHEAD       MOCLDY    61  59  94 N9        29.73S
FERGUS FALLS   CLEAR     59  57  94 NW9       29.72R
ELBOW LAKE     FAIR      61  57  87 NW9       29.71R
MORRIS MN      CLEAR     61  55  82 NW6       29.73R
STAPLES        CLEAR     61  57  88 W8        29.67R
WHEATON        CLEAR     63  55  77 NW8       29.75R
$$
  *****  WEATHER ELSEWHERE ACROSS MINNESOTA  *****

CITY           SKY/WX    TMP DP  RH WIND       PRES   REMARKS
DULUTH         FOG       62  60  93 SW7       29.61F VSB 1/4
INTRNTL FALLS  MOCLDY    58  58 100 W7        29.57R
ELY            CLOUDY    61  59  94 CALM      29.57F FOG
CLOQUET        FOG       61  59  94 SW5       29.61F VSB 1/4
BRAINERD       PTCLDY    60  60 100 W8        29.64R
HIBBING        CLOUDY    64  62  93 S3        29.58S FOG
ALEXANDRIA     CLEAR     62  56  80 W7        29.72R
SAINT CLOUD    PTCLDY    66  63  90 SW6       29.66R
MINNEAPOLIS    CLOUDY    72  67  84 SW10      29.68S
$$

  *****  WEATHER ACROSS SOUTH DAKOTA  *****

CITY           SKY/WX    TMP DP  RH WIND       PRES   REMARKS
SIOUX FALLS    PTCLDY    69  59  70 NW10      29.78R
BROOKINGS      NOT AVBL
WATERTOWN      CLEAR     63  54  72 NW6       29.77R
HURON          PTCLDY    65  52  62 NW12      29.79R
SISSETON         N/A     65  57  75 N13       29.73R
ABERDEEN       CLEAR     60  53  77 NW9       29.79R
MITCHELL       MOCLDY    66  57  72 W7        29.81R
PIERRE         MOCLDY    63  56  78 NW12      29.85R
MOBRIDGE       CLEAR     58  55  90 NW8       29.84R
RAPID CITY     CLOUDY    63  48  58 NW7       30.00R
$$

  *****  SOME WEATHER IN NEARBY STATES *****

CITY           SKY/WX    TMP DP  RH WIND       PRES   REMARKS
GLASGOW MT     PTCLDY    58  48  69 MISG      29.88R
GREAT FALLS MT CLEAR     54  42  64 SW13      30.05S
CHEYENNE WY    CLEAR     62  39  42 NW8       30.14R
SCOTTSBLUFF NE CLEAR     60  51  72 SW6       30.01R
OMAHA NE       PTCLDY    74  67  78 S12       29.82R
DES MOINES IA  CLOUDY    72  65  78 SW14      29.84R
DAVENPORT IA   MOCLDY    65  56  72 S10       29.92R
CHICAGO IL     PTCLDY    64  50  60 SW9G20    29.94R
EAU CLAIRE WI  CLOUDY    69  64  84 SW12      29.71R
LA CROSSE WI   LGT RAIN  67  64  90 SE16      29.74F
$$

  *****  SOME NATIONAL WEATHER *****

CITY           SKY/WX    TMP DP  RH WIND       PRES   REMARKS
LA GUARDIA NY  MOCLDY    59  49  69 E3        30.32S
RALEIGH NC     PTCLDY    61  56  83 NE5       30.22F
ATLANTA GA     PTCLDY    68  63  84 E10       30.13F
NEW ORLEANS LA CLEAR     78  68  71 E8        29.92F
OKLAHOMA CITY  PTCLDY    70  67  90 S5        29.99R
ALBUQUERQUE NM PTCLDY    69  56  62 CALM      30.11R
SALT LAKE CITY CLEAR     63  52  67 S5        30.08S
LOS ANGELES CA PTCLDY    68  63  84 W5        29.90R
BOISE ID       CLEAR     62  44  51 SE3       30.05S
SEATTLE WA     PTCLDY    62  56  80 N7        30.12S
$$

*** WEATHER ACROSS MANITOBA...SASKATCHEWAN AND ONTARIO ***
                ***ONTARIO***

CITY           SKY/WX    TMP DP  RH WIND       PRES   REMARKS
GERALDTON      FOG       55  55 100 W6        29.54  VSB 5/8
THUNDER BAY    CLOUDY    55  54  94 CALM      29.57F FOG
SIOUX LOOKOUT  LGT RAIN  59  59 100 NW3       29.53F FOG
TORONTO        PTCLDY    48  45  87 CALM      30.04F
BIG TROUT LK   CLOUDY    43  39  87 N8        29.61S
PICKLE LAKE    NOT AVBL
DRYDEN         CLOUDY    59  59 100 N7        29.55
KENORA         CLOUDY    55  54  94 NW12G20   29.62R FOG
$$
                *** MANITOBA***

CITY           SKY/WX    TMP DP  RH WIND       PRES   REMARKS
BRANDON        FOG       52  52 100 SE3       29.76S VSB 3/8
DAUPHIN        CLOUDY    50  50 100 SW5       29.72F FOG
ISLAND LAKE    CLOUDY    45  43  93 N6        29.68R
PILOT MOUND    NOT AVBL
THE PAS        CLOUDY   N/A N/A N/A S6          N/A
THOMPSON       PTCLDY    28  28 100 CALM      29.67S
WINNIPEG       MOCLDY    52  50  93 NW8       29.73R
LYNN LAKE      CLOUDY    43  37  81 SE9       29.61F
CHURCHILL      CLOUDY    37  36  93 NW15      29.65R
GILLAM         CLEAR     32  32 100 NE7       29.66R
$$
                ***SASKATCHEWAN***

CITY           SKY/WX    TMP DP  RH WIND       PRES   REMARKS
ESTEVAN        CLEAR     48  46  93 SW6       29.81F
KINDERSLEY     CLOUDY    54  50  87 N7        29.88S
LLOYDMINSTER   CLEAR     50  36  57 W13       29.82R
PRINCE ALBERT  MOCLDY    52  48  87 W9        29.69R
REGINA         PTCLDY    48  46  93 SW2       29.79R



USA.gov is the U.S. government's official web portal to all federal, state and local government web resources and services.